Boulder, CO

8:57 PM MST on February 11, 2016 (GMT -0700)
Boulder Muni, Boulder, CO

Weather History for KBDU - August, 2013

Change the Weather History Date:

Saturday, August 3, 2013

  Actual Average (KBJC) Record (KBJC)
Temperature  
Mean Temperature 75 °F -  
Max Temperature 91 °F 84 °F 95 °F (2008)
Min Temperature 59 °F 60 °F 48 °F (1986)
Cooling Degree Days 10    
Growing Degree Days 25 (Base 50)    
Moisture  
Dew Point 53 °F    
Average Humidity 57    
Maximum Humidity 100    
Minimum Humidity 14    
Precipitation  
Precipitation 0.28 in - - ()
Sea Level Pressure  
Sea Level Pressure 30.18 in    
Wind  
Wind Speed 4 mph (West)    
Max Wind Speed 26 mph    
Max Gust Speed 48 mph    
Visibility 10 miles    
Events Rain , Thunderstorm    
Averages and records for this station are not official NWS values.
T = Trace of Precipitation, MM = Missing Value Source: NWS Daily Summary

Daily Weather History Graph

Daily Weather History Graph

Search for Another Location

Airport or City:

Trip Planner

Search our weather history database for the weather conditions in past years. The results will help you decide how hot, cold, wet, or windy it might be!

Date:

Astronomy

Aug. 03, 2013 Rise Set
Actual Time 6:01 AM MDT 8:12 PM MDT
Civil Twilight 5:31 AM MDT 8:42 PM MDT
Nautical Twilight 4:54 AM MDT 9:19 PM MDT
Astronomical Twilight 4:13 AM MDT 9:59 PM MDT
Moon 3:12 AM MDT (8/3) 5:56 PM MDT (8/3)
Length of Visible Light 15h 10m
Length of Day
14h 10m
Waning Crescent, 9% of the Moon is Illuminated
Aug 3
Waning Crescent
Aug 6
New
Aug 14
First Quarter
Aug 20
Full
Aug 28
Last Quarter

Hourly Weather History & Observations

Time (MDT) Temp. Heat Index Dew Point Humidity Pressure Visibility Wind Dir Wind Speed Gust Speed Precip Events Conditions
12:17 AM 69.8 °F - 55.4 °F 60% 30.12 in 10.0 mi Calm Calm - N/A   Clear
12:37 AM 71.6 °F - 55.4 °F 57% 30.12 in 10.0 mi West 4.6 mph - N/A   Clear
12:57 AM 69.8 °F - 51.8 °F 53% 30.13 in 10.0 mi West 5.8 mph - N/A   Clear
1:17 AM 69.8 °F - 51.8 °F 53% 30.13 in 10.0 mi NW 3.5 mph - N/A   Clear
1:37 AM 69.8 °F - 53.6 °F 56% 30.13 in 10.0 mi NW 5.8 mph - N/A   Clear
1:57 AM 69.8 °F - 53.6 °F 56% 30.12 in 10.0 mi WNW 3.5 mph - N/A   Clear
2:17 AM 68.0 °F - 53.6 °F 60% 30.12 in 10.0 mi NW 5.8 mph - N/A   Clear
2:37 AM 68.0 °F - 51.8 °F 56% 30.11 in 10.0 mi WNW 8.1 mph - N/A   Clear
2:57 AM 68.0 °F - 50.0 °F 52% 30.11 in 10.0 mi Calm Calm - N/A   Clear
3:17 AM 68.0 °F - 51.8 °F 56% 30.11 in 10.0 mi ESE 4.6 mph - N/A   Clear
3:37 AM 68.0 °F - 50.0 °F 52% 30.11 in 10.0 mi Calm Calm - N/A   Clear
3:57 AM 66.2 °F - 57.2 °F 73% 30.11 in 10.0 mi NE 3.5 mph - N/A   Clear
4:17 AM 66.2 °F - 59.0 °F 78% 30.12 in 10.0 mi Calm Calm - N/A   Clear
4:37 AM 66.2 °F - 59.0 °F 78% 30.12 in 10.0 mi Calm Calm - N/A   Clear
4:57 AM 64.4 °F - 57.2 °F 77% 30.12 in 10.0 mi WNW 3.5 mph - N/A   Clear
5:17 AM 64.4 °F - 57.2 °F 77% 30.13 in 10.0 mi Calm Calm - N/A   Clear
5:37 AM 64.4 °F - 55.4 °F 73% 30.13 in 10.0 mi Calm Calm - N/A   Clear
5:57 AM 64.4 °F - 51.8 °F 64% 30.14 in 10.0 mi SSW 4.6 mph - N/A   Clear
6:17 AM 64.4 °F - 51.8 °F 64% 30.14 in 10.0 mi Calm Calm - N/A   Clear
6:37 AM 64.4 °F - 50.0 °F 59% 30.14 in 10.0 mi Calm Calm - N/A   Clear
6:57 AM 64.4 °F - 48.2 °F 56% 30.14 in 10.0 mi SW 3.5 mph - N/A   Clear
7:17 AM 66.2 °F - 48.2 °F 52% 30.15 in 10.0 mi Calm Calm - N/A   Clear
7:37 AM 64.4 °F - 53.6 °F 68% 30.16 in 10.0 mi Calm Calm - N/A   Clear
7:57 AM 69.8 °F - 53.6 °F 56% 30.16 in 10.0 mi Calm Calm - N/A   Clear
8:17 AM 69.8 °F - 53.6 °F 56% 30.17 in 10.0 mi Calm Calm - N/A   Clear
8:37 AM 71.6 °F - 53.6 °F 53% 30.17 in 10.0 mi Calm Calm - N/A   Clear
8:57 AM 71.6 °F - 53.6 °F 53% 30.17 in 10.0 mi Calm Calm - N/A   Clear
9:17 AM 73.4 °F - 55.4 °F 53% 30.17 in 10.0 mi Calm Calm - N/A   Clear
9:37 AM 77.0 °F - 55.4 °F 47% 30.16 in 10.0 mi Calm Calm - N/A   Clear
9:57 AM 77.0 °F - 53.6 °F 44% 30.16 in 10.0 mi Calm Calm - N/A   Clear
10:17 AM 78.8 °F - 53.6 °F 42% 30.17 in 10.0 mi SE 4.6 mph - N/A   Clear
10:37 AM 80.6 °F - 51.8 °F 37% 30.16 in 10.0 mi Calm Calm - N/A   Clear
10:57 AM 80.6 °F 80.3 °F 53.6 °F 39% 30.16 in 10.0 mi ESE 4.6 mph - N/A   Clear
11:17 AM 80.6 °F 80.5 °F 55.4 °F 42% 30.16 in 10.0 mi East 3.5 mph - N/A   Clear
11:37 AM 82.4 °F - 51.8 °F 35% 30.16 in 10.0 mi Calm Calm - N/A   Clear
11:57 AM 84.2 °F - 51.8 °F 33% 30.15 in 10.0 mi Calm Calm - N/A   Clear
12:17 PM 86.0 °F - 50.0 °F 29% 30.15 in 10.0 mi North 3.5 mph - N/A   Clear
12:37 PM 86.0 °F - 44.6 °F 23% 30.15 in 10.0 mi Calm Calm - N/A   Clear
12:57 PM 87.8 °F - 46.4 °F 24% 30.14 in 10.0 mi East 3.5 mph - N/A Thunderstorm Clear
1:17 PM 84.2 °F - 50.0 °F 30% 30.14 in 10.0 mi Calm Calm - N/A   Clear
1:37 PM 84.2 °F - 46.4 °F 27% 30.14 in 10.0 mi North 5.8 mph - N/A   Mostly Cloudy
1:57 PM 86.0 °F - 46.4 °F 25% 30.14 in 10.0 mi SE 3.5 mph - N/A   Scattered Clouds
2:17 PM 86.0 °F - 46.4 °F 25% 30.13 in 10.0 mi NNE 3.5 mph - N/A   Clear
2:37 PM 84.2 °F - 50.0 °F 30% 30.13 in 10.0 mi Calm Calm - N/A   Clear
2:57 PM 86.0 °F - 48.2 °F 27% 30.12 in 10.0 mi SW 3.5 mph - N/A   Clear
3:17 PM 86.0 °F - 37.4 °F 18% 30.10 in 10.0 mi WSW 5.8 mph - N/A   Clear
3:37 PM 89.6 °F - 37.4 °F 16% 30.11 in 10.0 mi WNW 4.6 mph - N/A   Clear
3:57 PM 91.4 °F - 35.6 °F 14% 30.11 in 10.0 mi East 4.6 mph - N/A   Clear
4:17 PM 89.6 °F - 41.0 °F 18% 30.11 in 10.0 mi NE 6.9 mph - N/A   Clear
4:37 PM 80.6 °F 80.5 °F 55.4 °F 42% 30.13 in 5.0 mi East 10.4 mph 24.2 mph N/A   Haze
4:57 PM 77.0 °F - 53.6 °F 44% 30.19 in 7.0 mi North 25.3 mph 35.7 mph N/A   Overcast
5:17 PM 64.4 °F - 55.4 °F 73% 30.22 in 10.0 mi NNE 20.7 mph 29.9 mph N/A   Overcast
5:37 PM 60.8 °F - 59.0 °F 94% 30.22 in 0.5 mi NNE 26.5 mph 48.3 mph 0.22 in Rain Heavy Rain
5:57 PM 59.0 °F - 59.0 °F 100% 30.26 in 10.0 mi NNW 8.1 mph - 0.23 in Rain , Thunderstorm Light Thunderstorms and Rain
6:17 PM 60.8 °F - 59.0 °F 94% 30.27 in 10.0 mi North 3.5 mph - N/A Rain , Thunderstorm Thunderstorms and Rain
6:37 PM 60.8 °F - 59.0 °F 94% 30.29 in 7.0 mi NNW 6.9 mph - 0.04 in Rain , Thunderstorm Thunderstorms and Rain
6:57 PM 60.8 °F - 60.8 °F 100% 30.29 in 10.0 mi NNW 3.5 mph - 0.05 in   Drizzle
7:17 PM 60.8 °F - 60.8 °F 100% 30.29 in 10.0 mi Calm Calm - N/A   Light Drizzle
7:37 PM 62.6 °F - 59.0 °F 88% 30.30 in 10.0 mi Calm Calm - N/A   Mostly Cloudy
7:57 PM 62.6 °F - 60.8 °F 94% 30.32 in 10.0 mi South 5.8 mph - N/A   Overcast
8:17 PM 62.6 °F - 59.0 °F 88% 30.31 in 10.0 mi SSW 8.1 mph - N/A   Mostly Cloudy
8:37 PM 62.6 °F - 57.2 °F 82% 30.32 in 10.0 mi SSW 10.4 mph - N/A   Mostly Cloudy
8:57 PM 64.4 °F - 55.4 °F 73% 30.34 in 10.0 mi South 9.2 mph - N/A   Mostly Cloudy
9:17 PM 62.6 °F - 55.4 °F 77% 30.33 in 10.0 mi South 5.8 mph - N/A   Scattered Clouds
9:37 PM 64.4 °F - 53.6 °F 68% 30.33 in 10.0 mi SSW 5.8 mph - N/A   Clear
9:57 PM 64.4 °F - 51.8 °F 64% 30.32 in 10.0 mi SW 5.8 mph - N/A   Scattered Clouds
10:17 PM 64.4 °F - 53.6 °F 68% 30.32 in 10.0 mi South 3.5 mph - N/A   Scattered Clouds
10:37 PM 64.4 °F - 51.8 °F 64% 30.33 in 10.0 mi SW 5.8 mph - N/A   Scattered Clouds
10:57 PM 64.4 °F - 51.8 °F 64% 30.31 in 10.0 mi SW 8.1 mph - N/A   Clear
11:17 PM 64.4 °F - 50.0 °F 59% 30.30 in 10.0 mi SW 8.1 mph - N/A   Clear
11:37 PM 64.4 °F - 50.0 °F 59% 30.29 in 10.0 mi SW 6.9 mph - N/A   Clear
11:57 PM 64.4 °F - 50.0 °F 59% 30.27 in 10.0 mi SW 6.9 mph - N/A   Clear